FW6550 Weather Reports


time (UTC)temp
C
wind
direction
speed
KPH
gust
KPH
rain 1hr
cm
rain 24hr
cm
rain mn
cm
humidity
%
barometer
mb
20260505124532 15 0 0.0 4.8 0.00 0.00 0.00 79 1014.5
20260505123032 14 0 0.0 1.6 0.00 0.00 0.00 76 1014.4
20260505121538 13 0 0.0 1.6 0.00 0.00 0.00 70 1014.0
20260505120057 13 0 0.0 0.0 0.00 0.00 0.00 69 1013.8
20260505114531 12 0 0.0 0.0 0.00 0.00 0.00 70 1013.7
20260505113037 12 0 0.0 0.0 0.00 0.00 0.00 74 1013.4
20260505111532 12 0 0.0 0.0 0.00 0.00 0.00 76 1013.4
20260505101534 13 0 0.0 0.0 0.00 0.00 0.00 79 1013.4
20260505100035 13 0 0.0 0.0 0.00 0.00 0.00 79 1013.2
20260505094532 13 0 0.0 1.6 0.00 0.00 0.00 78 1013.3
20260505093041 13 0 0.0 0.0 0.00 0.00 0.00 80 1013.5
20260505091535 13 0 0.0 0.0 0.00 0.00 0.00 80 1013.7
20260505090041 13 0 0.0 0.0 0.00 0.00 0.00 80 1013.8
20260505084533 14 0 0.0 0.0 0.00 0.00 0.00 80 1013.7
20260505083034 14 0 0.0 0.0 0.00 0.00 0.00 80 1013.7
20260505081539 15 0 0.0 0.0 0.00 0.00 0.00 79 1013.8
20260505080037 15 0 0.0 0.0 0.00 0.00 0.00 78 1013.6
20260505074535 15 0 0.0 0.0 0.00 0.00 0.00 77 1013.8
20260505073051 15 0 0.0 0.0 0.00 0.00 0.00 77 1014.1
20260505071534 16 0 0.0 1.6 0.00 0.00 0.00 76 1014.1
20260505070032 16 0 0.0 4.8 0.00 0.00 0.00 75 1014.2
20260505064540 16 0 0.0 6.4 0.00 0.00 0.00 74 1014.3
20260505063034 16 149 0.0 4.8 0.00 0.00 0.00 73 1014.3
20260505061547 17 64 0.0 4.8 0.00 0.00 0.00 72 1014.2
20260505060036 17 0 0.0 4.8 0.00 0.00 0.00 71 1014.4
20260505054557 17 0 1.6 6.4 0.00 0.00 0.00 69 1014.5
20260505053034 17 226 0.0 4.8 0.00 0.00 0.00 68 1014.4
20260505051535 17 276 1.6 6.4 0.00 0.00 0.00 68 1014.1
20260505041537 16 0 0.0 1.6 0.00 0.00 0.00 70 1014.0
20260505040037 17 0 0.0 0.0 0.00 0.00 0.00 69 1013.8
20260505034534 17 0 0.0 0.0 0.00 0.00 0.00 67 1013.9
20260505033033 17 0 0.0 0.0 0.00 0.00 0.00 65 1013.7
20260505031548 18 0 0.0 0.0 0.00 0.00 0.00 64 1013.6
20260505030038 18 0 0.0 0.0 0.00 0.00 0.00 63 1013.6
20260505024540 18 0 0.0 0.0 0.00 0.00 0.00 61 1013.6
20260505023035 18 0 0.0 0.0 0.00 0.00 0.00 60 1013.6
20260505021532 19 0 0.0 0.0 0.00 0.00 0.00 60 1013.6
20260505020035 20 0 0.0 0.0 0.00 0.00 0.00 58 1013.4
20260505014536 20 0 0.0 0.0 0.00 0.00 0.00 56 1013.3
20260505013034 21 0 0.0 0.0 0.00 0.00 0.00 54 1013.0
20260505011534 21 0 0.0 0.0 0.00 0.00 0.00 52 1013.1
20260505010031 21 0 0.0 0.0 0.00 0.00 0.00 49 1012.9
20260505004544 22 0 0.0 1.6 0.00 0.00 0.00 48 1013.0
20260505003033 22 0 0.0 0.0 0.00 0.00 0.00 45 1012.8
20260505001534 23 0 0.0 0.0 0.00 0.00 0.00 43 1012.8
20260505000052 23 0 0.0 3.2 0.00 0.00 0.00 42 1012.8
20260504234531 25 0 1.6 6.4 0.00 0.00 0.00 39 1012.9
20260504233032 25 183 0.0 6.4 0.00 0.00 0.00 41 1013.3
20260504231535 25 219 1.6 6.4 0.00 0.00 0.00 40 1013.4
20260504230037 25 0 0.0 8.0 0.00 0.00 0.00 42 1013.5
20260504224531 25 0 0.0 6.4 0.00 0.00 0.00 41 1013.5
20260504223034 26 140 0.0 6.4 0.00 0.00 0.00 41 1013.5
20260504221549 26 49 0.0 8.0 0.00 0.00 0.00 40 1013.7
20260504220035 26 0 0.0 6.4 0.00 0.00 0.00 40 1013.9
20260504214537 26 315 1.6 6.4 0.00 0.00 0.00 41 1013.8
20260504213037 26 286 3.2 11.3 0.00 0.00 0.00 40 1013.8
20260504211534 26 319 3.2 11.3 0.00 0.00 0.00 43 1013.8
20260504210032 26 112 1.6 11.3 0.00 0.00 0.00 40 1014.2
20260504204538 26 266 1.6 12.9 0.00 0.00 0.00 42 1014.2
20260504203033 27 0 3.2 11.3 0.00 0.00 0.00 39 1014.5
20260504201535 27 30 1.6 11.3 0.00 0.00 0.00 40 1014.6
20260504200034 27 188 3.2 12.9 0.00 0.00 0.00 43 1014.6
20260504194532 27 317 1.6 8.0 0.00 0.00 0.00 45 1015.0
20260504193032 28 261 1.6 11.3 0.00 0.00 0.00 41 1015.0
20260504191540 27 311 0.0 9.7 0.00 0.00 0.00 43 1015.1
20260504190036 27 265 3.2 11.3 0.00 0.00 0.00 44 1015.3
20260504184535 27 0 0.0 9.7 0.00 0.00 0.00 47 1015.5
20260504183034 27 336 1.6 6.4 0.00 0.00 0.00 47 1015.7
20260504181535 26 0 0.0 6.4 0.00 0.00 0.00 45 1015.8
20260504180032 26 195 1.6 9.7 0.00 0.00 0.00 47 1016.0
20260504174535 26 13 0.0 6.4 0.00 0.00 0.00 51 1016.2
20260504173036 25 211 1.6 11.3 0.00 0.00 0.00 53 1016.3
20260504171535 26 0 0.0 8.0 0.00 0.00 0.00 52 1016.6